Regional Weather Roundup
Issued by NWS Charleston, SC

Current Version | Previous Version | Graphics & Text | Print | Product List | Glossary On
Versions: 1 2 3 4 5 6 7 8 9 10 11 12 13 14 15 16 17 18 19 20 21 22 23 24 25 26 27 28 29 30 31 32 33 34 35 36 37 38 39 40 41 42 43 44 45 46 47 48 49 50
000
ASUS42 KCHS 261725
RWRCHS

REGIONAL WEATHER ROUNDUP
NATIONAL WEATHER SERVICE CHARLESTON SC
1200 PM EST MON JAN 26 2015

NOTE: "FAIR" INDICATES FEW OR NO CLOUDS BELOW 12,000 FEET WITH NO
SIGNIFICANT WEATHER AND/OR OBSTRUCTIONS TO VISIBILITY.

NOT ALL STATIONS ARE QUALITY CONTROLLED BY THE NATIONAL
WEATHER SERVICE. USE DATA WITH CAUTION...ESPECIALLY
DEWPOINT OBSERVATIONS.

SCZ027-030-031-034>040-042>050-261800-
...SOUTHEAST SOUTH CAROLINA...

CITY           SKY/WX    TMP DP  RH WIND       PRES   REMARKS
N CHARLESTON   MOSUNNY   57  41  55 W15G22    29.67F
WATERFRONT PRK   N/A     55 N/A N/A W10G16      N/A
MOUNT PLEASANT FAIR     N/A N/A N/A W14       29.65F
PINOPOLIS      NOT AVBL
MONCKS CORNER  PTSUNNY   57  43  58 W6        29.65F
SUMMERVILLE    FAIR      57  43  58 W8G18     29.68F
BEAUFORT MCAS  PTSUNNY   56  39  53 NW20G26   29.71F
BEAUFORT ARPT  PTSUNNY   55  43  62 W18G26    29.70F
HILTON HEAD IS PTSUNNY   54  41  62 W16G26    29.72F
WALTERBORO     CLOUDY    55  36  47 W17G24    29.69F
ALLENDALE      CLOUDY    55  41  58 W10G26    29.71S

...SOUTHERN MIDLANDS AND PEE DEE...

CITY           SKY/WX    TMP DP  RH WIND       PRES   REMARKS
GEORGETOWN     NOT AVBL
KINGSTREE      NOT AVBL
ORANGEBURG     PTSUNNY   55  39  54 W15       29.67F
BARNWELL       CLOUDY    55  39  54 W9        29.71S
AIKEN          PTSUNNY   55  39  54 W15G29    29.72F
MANNING        NOT AVBL
COLUMBIA       MOSUNNY   56  40  55 W20G26    29.66F
SUMTER         MOSUNNY   57  40  52 W12       29.63F
FLORENCE       MOSUNNY   56  40  55 W8        29.63F
MYRTLE BEACH   MOSUNNY   57  43  58 NW12      29.65F
N MYRTLE BEACH SUNNY     57  41  55 NW13G20   29.62F

$$

GAZ063-065-086>088-099>101-113>116-118-119-134>141-150-261800-
...SOUTHEAST GEORGIA...

CITY           SKY/WX    TMP DP  RH WIND       PRES   REMARKS
SAVANNAH ARPT  PTSUNNY   57  38  48 W23G30    29.75F
HUNTER AAF     MOSUNNY   58  40  50 W17G25    29.72F
FORT STEWART   PTSUNNY   54  38  55 W23G31    29.77S
STATESBORO     CLOUDY    54  41  61 W17G24    29.76F
SYLVANIA       CLOUDY    54  43  66 W14G22    29.75F
CLAXTON        FAIR      52  43  71 W16G30    29.78F

...CSRA...CENTRAL AND FAR SOUTHEAST GEORGIA...

CITY           SKY/WX    TMP DP  RH WIND       PRES   REMARKS
THOMSON        CLOUDY    54  42  63 W16G24    29.79S
AUGUSTA-BUSH   PTSUNNY   55  38  52 NW18G26   29.72S
AUGUSTA-DANIEL MOSUNNY   55  38  52 NW20G26   29.72F
SWAINSBORO     CLOUDY    52  34  50 W13G23    29.79F
VIDALIA        CLOUDY    52  41  66 NW17G29   29.80F
EASTMAN        CLOUDY    52  41  66 W10G23    29.86F
HAZLEHURST     CLOUDY    52  42  68 W9G24     29.82F
ALMA           CLOUDY    53  38  56 W15G28    29.84S
WAYCROSS       CLOUDY    57  43  59 NW14G20   29.84F
JESUP          CLOUDY    55  43  62 NW20G29   29.80F
BAXLEY         CLOUDY    54  41  62 NW17G30   29.82F
BRUNSWICK      PTSUNNY   59  39  47 W14G28    29.79F
SAINT SIMONS   PTSUNNY   56  39  53 W15G26    29.79F

$$

SCZ027-028-034-036>038-045-046-048>050-GAZ119-141-261800-
...LAKE AND SUPPLEMENTAL COASTAL OBSERVATIONS...

STATION/POSITION TIME  TEMP    WIND        PRES    WAVE   SWELL
                       AIR SEA DIR/SP/G            HT/PER HT/PER/DIR
                 (UTC) (F)     (DEG/KT/KT) (MB)    (FT/S) (FT/S/D)
UPR LAKE MARION  NOT AVBL
WINYAH BAY       1700   55     270/  7     1003.0S
LAKE MURRAY      1600   52     280/ 10/ 18 1004.4S
ACE BASIN NERRS  1700   54     290/  6     1005.0F
FORT PULASKI     1700   53 53  280/ 25/ 29 1007.1F
SAPELO ISLAND    1700   56     280/ 17     1008.0S

$$

ANZ835-935-AMZ111-154-330-350-352-354-370-450-454-472-261800-
...C-MAN AND BUOY OBSERVATIONS...

STATION/POSITION TIME  TEMP    WIND        PRES    WAVE   SWELL
                       AIR SEA DIR/SP/G            HT/PER HT/PER/DIR
                 (UTC) (F)     (DEG/KT/KT) (MB)    (FT/S) (FT/S/D)
BUOY 41004       1700   55 69  270/ 16/ 21 1004.0F   6/ 7   2/15
BUOY 41008       1700   53 55  290/ 19/ 23 1007.2F   4/ 5
FOLLY BEACH CMAN 1700   56     270/ 11/ 16 1004.8F
CAPERS NEARSHORE 1600   53     290/ 10/ 12   N/A
FRIPP NEARSHORE  1600   52     290/ 17/ 21   N/A


STATION/POSITION TIME  TEMP    WIND        PRES    WAVE   SWELL
                       AIR SEA DIR/SP/G            HT/PER HT/PER/DIR
                 (UTC) (F)     (DEG/KT/KT) (MB)    (FT/S) (FT/S/D)
5E ST. MARYS GA  1700      58                N/A     3/ 4
FRYING PAN BUOY  1700   54 67  290/ 14/ 17 1003.5F   6/ 7   5/190/ 7
BUOY 41025       1700   58 70  320/  6/  8 1002.4F   3/ 8   3/ 70/ 8
CAPE LOOKOUT NC  1700   50     330/  2/  3 1001.6F
BUOY 41002       1641   70 72  250/ 27/ 35 1002.1F   8/ 6   2/ 30/10
BUOY 41010       1700   67 76  270/ 33/ 39 1006.9F  10/ 7
ST AUGUSTINE FL  1700   57     280/ 14/ 19 1010.4F


$$



USA.gov is the U.S. government's official web portal to all federal, state and local government web resources and services.